Regional Weather Roundup
Issued by NWS

Home | Current Version | Previous Version | Text Only | Print | Product List | Glossary Off
Versions: 1 2 3 4 5 6 7 8 9 10 11 12 13 14 15 16 17 18 19 20 21 22 23 24 25 26 27 28 29 30 31 32 33 34 35 36 37 38 39 40 41 42 43 44 45 46 47 48 49 50

000
ASUS43 KMKX 061800
RWRWI

WISCONSIN REGIONAL WEATHER ROUNDUP
NATIONAL WEATHER SERVICE MILWAUKEE/SULLIVAN WI
100 PM CDT MON JUL 06 2015

NOTE: "FAIR" INDICATES FEW OR NO CLOUDS BELOW 12,000 FEET WITH NO
SIGNIFICANT WEATHER AND/OR OBSTRUCTIONS TO VISIBILITY.

WIZ001-002-006>008-014>016-023>028-061900-
NORTHWEST WISCONSIN

CITY           SKY/WX    TMP DP  RH WIND       PRES   REMARKS
SUPERIOR ARPT  LGT RAIN  60  59  96 NE3       29.92R
ASHLAND        LGT RAIN  59  58  96 N13       29.91R VSB 1
6HR MIN TEMP:  59; 6HR MAX TEMP:  68; 6HR PCP:  0.19;

HAYWARD        RAIN      61  58  90 N17G26    29.88R FOG
6HR MIN TEMP:  61; 6HR MAX TEMP:  69; 6HR PCP:  0.83;

SIREN          RAIN      59  58  94 N10G17    29.91R
CUMBERLAND     RAIN      61  59  94 N18G30    29.86R
RICE LAKE      CLOUDY    71  68  89 NW10G21   29.84R
CHETEK         CLOUDY    73  70  89 SW3       29.80F
LADYSMITH      CLOUDY    72  70  93 S6        29.83F
EAU CLAIRE     LGT RAIN  72  68  88 W13       29.78S FOG
MENOMONIE      CLOUDY    73  73  99 NW3       29.80S
NEW RICHMOND   LGT RAIN  63  62  96 N17G31    29.87R
OSCEOLA        LGT RAIN  62  62 100 N15G25    29.92R
$$

WIZ003>005-009-010-017-018-061900-
NORTH CENTRAL WISCONSIN

CITY           SKY/WX    TMP DP  RH WIND       PRES   REMARKS
MANITOWISH WTR LGT RAIN  68  68 100 CALM      29.83S
ARBOR VITAE    RAIN      69  68  94 S5        29.83F
WOODRUFF       RAIN      69  68  94 S5        29.83F
RHINELANDER    CLOUDY    71  67  87 SW5       29.84F
6HR MIN TEMP:  66; 6HR MAX TEMP:  71; 6HR PCP:  0.52;

EAGLE RIVER    DRIZZLE   68  68 100 S5        29.83F
LAND O LAKES   RAIN      69  67  94 CALM      29.84S
PHILLIPS       HVY RAIN  68  68  98 S8        29.82S
TOMAHAWK       CLOUDY    71  67  87 CALM      29.83F
MEDFORD        CLOUDY    71  70  96 S8        29.83S
MERRILL        CLOUDY    74  71  91 S5        29.83S
$$

WIZ029-030-035-036-043>047-061900-
CENTRAL WISCONSIN

CITY           SKY/WX    TMP DP  RH WIND       PRES   REMARKS
WAUSAU         CLOUDY    73  69  87 S9        29.82S
6HR MIN TEMP:  68; 6HR MAX TEMP:  74; 6HR PCP:  0.28;

MOSINEE        PTSUNNY   72  72 100 S8        29.85S
MARSHFIELD     LGT RAIN  75  69  81 S9        29.83F
6HR MIN TEMP:  68; 6HR MAX TEMP:  76; 6HR PCP:  0.09;

STEVENS POINT  CLOUDY    73  69  87 SW9       29.85F
WAUPACA        CLOUDY    78  74  87 S13       29.85F FOG     HX  80
WAUTOMA        NOT AVBL
WISC RAPIDS    CLOUDY    78  70  76 S7        29.83F HX  80
6HR MIN TEMP:  68; 6HR MAX TEMP:  79; 6HR PCP:  0.40;

CAMP DOUGLAS   NOT AVBL
$$

WIZ011>013-019>022-031-037>040-048>050-061900-
NORTHEAST WISCONSIN

CITY           SKY/WX    TMP DP  RH WIND       PRES   REMARKS
ANTIGO         CLOUDY    71  69  93 S8        29.84S
SHAWANO        LGT RAIN  73  70  88 S3        29.85F
OCONTO         CLOUDY    73  73 100 S5        29.84F
STURGEON BAY   CLOUDY    72  64  78 SE8       29.88F
6HR MIN TEMP:  64; 6HR MAX TEMP:  73;

GREEN BAY      CLOUDY    79  71  76 SW12      29.84F HAZE    HX  82
6HR MIN TEMP:  67; 6HR MAX TEMP:  79; 6HR PCP:  0.01;

MANITOWOC      NOT AVBL
APPLETON       CLOUDY    75  70  83 SW12G18   29.87S
CLINTONVILLE   CLOUDY    72  70  94 S7        29.84F FOG
OSHKOSH        CLOUDY    78  69  73 SW14G21   29.85F HX  80
6HR MIN TEMP:  68; 6HR MAX TEMP:  79; 6HR PCP: TRACE;

$$

WIZ032>034-041-042-053>061-061900-
SOUTHWEST WISCONSIN

CITY           SKY/WX    TMP DP  RH WIND       PRES   REMARKS
LA CROSSE      CLOUDY    77  69  76 SW8       29.81S
6HR MIN TEMP:  72; 6HR MAX TEMP:  77; 6HR PCP:  0.02;

SPARTA         CLOUDY    78  68  71 S8        29.82F HX  80
VIROQUA        CLOUDY    76  68  75 S10       29.84F
BOSCOBEL       CLOUDY    79  69  71 SW8       29.83F HX  81
6HR MIN TEMP:  72; 6HR MAX TEMP:  79; 6HR PCP:  0.34;

PRAIRIE DU CHI CLOUDY    74  67  76 CALM      29.83R
PLATTEVILLE    CLOUDY    74  72  93 SE14      29.83F
$$

WIZ056-057-062-063-064-067-068-061900-
SOUTH CENTRAL WISCONSIN

CITY           SKY/WX    TMP DP  RH WIND       PRES   REMARKS
REEDSBURG      LGT RAIN  75  71  87 SE8G16    29.82F
BARABOO/DELLS  CLOUDY    76  69  80 S13       29.85F
LONE ROCK      NOT AVBL
MINERAL POINT  CLOUDY    75  72  88 SE9       29.86F
MADISON        CLOUDY    74  70  87 SE6       29.85F
6HR MIN TEMP:  70; 6HR MAX TEMP:  76; 6HR PCP:  0.28;

MIDDLETON      CLOUDY    74  72  92 S5        29.87F
WATERTOWN      LGT RAIN  74  74 100 SW8G17    29.90F
MONROE         CLOUDY    73  70  88 S6        29.89F
JANESVILLE     CLOUDY    75  73  94 S6        29.90F
$$

WIZ051-052-058>065-066-070>072-061900-
SOUTHEAST WISCONSIN

CITY           SKY/WX    TMP DP  RH WIND       PRES   REMARKS
MILWAUKEE      CLOUDY    85  69  58 S15       29.89F HX  89
6HR MIN TEMP:  68; 6HR MAX TEMP:  85;

WAUKESHA       RAIN      75  68  78 W12G29    29.93S FOG
MILWAUKEE/TIMM CLOUDY    82  66  57 S10       29.89F HX  85
RACINE         CLOUDY    80  66  62 S12       29.92F HAZE    HX  82
6HR MIN TEMP:  68; 6HR MAX TEMP:  80;

BURLINGTON     CLOUDY    79  69  70 SW13G21   29.92S HX  82
KENOSHA        CLOUDY    85  71  63 S14G22    29.91F HX  90
6HR MIN TEMP:  67; 6HR MAX TEMP:  85;

FOND DU LAC    CLOUDY    78  69  73 SW16G24   29.87F HX  80
6HR MIN TEMP:  71; 6HR MAX TEMP:  81; 6HR PCP: TRACE;

SHEBOYGAN      CLOUDY    78  69  73 SE8       29.88F HAZE    HX  80
6HR MIN TEMP:  64; 6HR MAX TEMP:  80;

WEST BEND      CLOUDY    79  68  69 SW10G17   29.90F HX  81
JUNEAU         LGT RAIN  73  71  94 SW16      29.92F
$$

LSZ147-162-061900-
LAKE SUPERIOR

STATION/POSITION TIME  TEMP    WIND        PRES    WAVE
                       AIR SEA DIR/SP/G            HT/PER
                 (UTC) (F)     (DEG/KT/KT) (MB)    (FT/S)
W MID LAKE BUOY  1650   47 39   10/  6/  6 1012.1R   1
DEVILS ISLAND    1700   60      30/  9/ 11 1012.7R
PORT WING        1701   60      50/  8/ 11 1012.5S
SAXON HARBOR     1740   60      10/ 15/ 17 1012.2R
$$

LMZ867-665-643>646-061900-
LAKE MICHIGAN

STATION/POSITION TIME  TEMP    WIND        PRES    WAVE
                       AIR SEA DIR/SP/G            HT/PER
                 (UTC) (F)     (DEG/KT/KT) (MB)    (FT/S)
CHAMBERS ISLAND  1700   74     150/  5/  8 1011.2F
S GREEN BAY BUOY 1600   73 69  180/ 10/ 14 1012.7F
N MID LAKE BUOY  1650   61 55  190/ 17/ 21 1011.8F   3/ 4
NORTHPORT PIER   1700   70     160/  8/ 16 1011.9S
SISTER BAY       1729   75     180/ 15/ 18   N/A
ALGOMA LAKESHORE 1741          220/ 12/ 14   N/A
KEWAUNEE LAKESHO 1700   60     180/ 17/ 20 1011.9S
SHEBOYGAN LAKESH 1700   63     170/ 20/ 22 1012.6F
PORT WASHINGTON  1700   69     190/  8/ 12 1013.5
ATWATER BUOY     1700   65 60  160/ 14/ 19 1014.3F
MILWAUKEE LAKESH 1700   65     140/ 16/ 19   N/A
KENOSHA   LAKESH 1700   65     160/ 12/ 15 1013.2F
$$

TC  - TEMPERATURE IN CELSIUS
VSB - VISIBILITY IN STATUTE MILES
WCI - WIND CHILL INDEX
HX  - HEAT INDEX




USA.gov is the U.S. government's official web portal to all federal, state and local government web resources and services.